Weather in Svetly

Russia / Republic of Kalmykia     45°35′21″N   45°15′30″E
temp.,
°C
wind,
m/s
gust,
m/s
humid.,
%
clouds,
%
prec.,
mm/h
press.,
hPa
HPBL,
m
18 may, tue
tue1800:00+19e2246100 0.0 100514
03:00+19wnw3449100 0.0 100665
06:00+19wnw10138095 0.0 1006622
09:00+21wnw11126795 0.1 10081301
12:00+22nw9105799 0.6 10091135
15:00+24wnw994976 0.6 10101247
18:00+23nw6749100 0.0 10101021
21:00+18wnw466529 0.0 1011118
19 may, wed
wed1900:00+17nw34690 0.0 101149
03:00+16n33740 0.0 101033
06:00+17ne23697 0.0 1009126
09:00+22nw2246100 0.0 1009764
12:00+26wnw3333100 0.0 10091410
15:00+24wnw121245100 0.0 10111255
18:00+18wnw5765100 2.4 1015470
21:00+15w47760 2.5 1016156
20 may, thu
thu2000:00+14wnw410810 0.0 1016221
03:00+13nw410780 0.0 1017223
06:00+14nw257222 0.0 1018220
09:00+20nw45435 0.0 1017923
12:00+24w12355 0.0 10161554
15:00+26sse1131100 0.0 10161903
18:00+26ese333299 0.0 10161880
21:00+22se33405 0.0 101625
21 may, fri
fri2100:00+19sse46455 0.0 1016110
03:00+17ese46525 0.0 1016111
06:00+19ese511565 0.0 1016361
09:00+25ese912340 0.0 10151155
12:00+29se1012250 0.0 10151554
15:00+29ese1112260 0.0 10141452
18:00+26ese913324 0.0 10141070
21:00+22ese815445 0.0 1015578
22 may, sat
sat2200:00+20ese715610 0.0 1014497
03:00+20e7155986 0.0 1013405
06:00+21ese7175348 0.0 1013585
09:00+29ese1116295 0.0 10131183
12:00+33ese1317204 0.0 10111690
15:00+33ese1317205 0.0 10111717
18:00+30ese1017268 0.0 10101099
21:00+25e81638100 0.0 1010512